This demonstration page uses our WeatherBlox Daily Observations layout. Learn more.

Left ArrowRight Arrow

Hourly Observations for July 11, 2016

Temp ( °F °C ) Dew Point ( °F °C ) Humidity (%) Winds ( mph kmh ) Pressure ( in mb ) Visibility ( mi km ) Precip ( " mm )
12:53 am 00:53 Clear 80 26.7 69 20.6 69 69 S 15 24 29.65 1004 10 16 0.00 0.00
1:53 am 01:53 Clear 79 26.1 70 21.1 74 74 S 15 24 29.64 1004 10 16 0.00 0.00
2:53 am 02:53 Clear 79 26.1 69 20.6 72 72 S 17 28 29.63 1003 10 16 0.00 0.00
3:53 am 03:53 Clear 78 25.6 68 20 71 71 S 13 20 29.61 1003 10 16 0.00 0.00
4:53 am 04:53 Clear 77 25 68 20 74 74 S 14 22 29.59 1002 10 16 0.00 0.00
5:53 am 05:53 Clear 76 24.4 68 20 77 77 S 15 24 29.59 1002 10 16 0.00 0.00
6:53 am 06:53 Sunny 74 23.3 68 20 82 82 SSE 12 19 29.58 1002 10 16 0.00 0.00
7:53 am 07:53 Sunny 79 26.1 69 20.6 72 72 S 14 22 29.58 1002 10 16 0.00 0.00
8:53 am 08:53 Mostly Sunny 81 27.2 70 21.1 69 69 SSW 17 28 29.59 1002 10 16 0.00 0.00
9:53 am 09:53 Sunny 81 27.2 70 21.1 69 69 S 17 28 29.57 1002 10 16 0.00 0.00
10:53 am 10:53 Sunny 84 28.9 71 21.7 65 65 S 15 24 29.56 1001 10 16 0.00 0.00
11:53 am 11:53 Sunny 87 30.6 71 21.7 59 59 S 15 24 29.57 1001 10 16 0.00 0.00
12:53 pm 12:53 Sunny 89 31.7 72 22.2 57 57 S 16 26 29.57 1001 10 16 0.00 0.00
1:53 pm 13:53 Mostly Cloudy 91 32.8 70 21.1 50 50 SSW 12 19 29.57 1001 10 16 0.00 0.00
2:53 pm 14:53 Mostly Sunny 95 35 71 21.7 46 46 SW 10 17 29.55 1001 10 16 0.00 0.00
3:53 pm 15:53 Mostly Sunny 94 34.4 69 20.6 44 44 W 13 20 29.56 1001 10 16 0.00 0.00
4:53 pm 16:53 Sunny 92 33.3 73 22.8 54 54 NW 10 17 29.57 1001 10 16 0.00 0.00
5:53 pm 17:53 Sunny 91 32.8 72 22.2 54 54 NNW 10 17 29.58 1002 10 16 0.00 0.00
6:53 pm 18:53 Sunny 91 32.8 73 22.8 56 56 NNW 9 15 29.60 1003 10 16 0.00 0.00
7:53 pm 19:53 Sunny 87 30.6 74 23.3 65 65 N 13 20 29.62 1003 10 16 0.00 0.00
8:53 pm 20:53 Sunny 82 27.8 71 21.7 69 69 N 6 9 29.65 1004 10 16 0.00 0.00
9:53 pm 21:53 Clear 77 25 70 21.1 79 79 NNW 10 17 29.68 1005 10 16 0.00 0.00
10:53 pm 22:53 Clear 75 23.9 65 18.3 71 71 NW 8 13 29.70 1006 10 16 0.00 0.00
11:53 pm 23:53 Clear 74 23.3 63 17.2 69 69 Calm 29.70 1006 10 16 0.00 0.00

Powered by AerisWeather